CAPE
0 0 0 0 0 0 0 0 0 0 0 0 0 0 0 0 0 0 0 0 0 0 0 0 0 0 0 0 0 0 0 0 0 0 0 0 0 0 0 0 87 290 234 128 334
0 0 0 0 0 0 0 0 0 0 0 0 0 0 0 0 0 0 0 0 0 0 0 0 0 0 0 0 0 0 0 0 0 0 0 0 0 0 0 0 0 123 217 249 449
0 0 0 0 0 0 0 0 0 0 0 0 0 0 0 0 0 0 0 0 0 0 0 0 0 0 0 0 0 0 0 0 0 0 0 0 0 0 0 0 0 0 140 355 468
0 0 0 0 0 0 0 0 0 0 0 0 0 0 0 0 0 0 0 0 0 0 0 0 0 0 0 0 0 0 0 0 0 0 0 0 0 0 0 0 0 1 235 410 422
0 0 0 0 0 0 0 0 0 0 0 0 0 0 0 0 0 0 0 0 0 0 0 0 0 0 0 0 0 0 0 0 0 0 0 0 0 0 0 0 0 0 32 139 460
0 0 0 0 0 0 0 0 0 0 0 0 0 0 0 0 0 0 0 0 0 0 0 0 0 0 0 0 0 0 0 0 0 0 0 0 0 0 0 0 0 0 0 42 349
0 0 0 0 0 0 0 0 0 0 0 0 0 0 0 0 0 0 0 0 0 0 0 0 0 0 0 0 0 0 0 0 0 0 0 0 0 0 0 0 0 0 0 54 394
0 0 0 0 0 0 0 0 0 0 0 0 0 0 0 0 0 0 0 0 0 0 0 0 0 0 0 0 0 0 0 0 0 0 0 0 0 0 0 0 0 0 0 87 260
0 0 0 0 0 0 0 0 0 0 0 0 0 0 0 0 0 0 0 0 0 0 0 0 0 0 0 0 0 0 0 0 0 0 0 0 0 0 0 0 0 0 0 122 281
0 0 0 0 0 0 0 0 0 0 0 0 0 0 0 0 0 0 0 0 0 0 0 0 0 0 0 0 0 0 0 0 0 0 0 0 0 0 0 0 0 0 0 0 25
0 0 0 0 0 0 0 0 0 0 0 0 0 0 0 0 0 0 0 0 0 0 0 0 0 0 0 0 0 0 0 0 0 0 0 0 0 0 0 0 0 0 0 0 0
0 0 0 0 0 0 0 0 0 0 0 0 0 0 0 0 0 0 0 0 0 0 0 0 0 0 0 0 0 0 0 0 0 0 0 0 0 0 0 0 0 0 0 0 1
0 0 0 0 0 0 0 0 0 0 0 0 0 0 0 0 0 0 0 0 0 0 0 0 0 0 0 0 0 0 0 0 0 0 0 0 0 0 0 0 0 0 0 65 239
0 0 0 0 0 0 0 0 0 0 0 0 0 0 0 0 0 0 0 0 0 0 0 0 0 0 0 0 0 0 0 0 0 0 0 0 0 0 0 0 0 0 0 1 395
0 0 0 0 0 0 0 0 0 0 0 0 0 0 0 0 0 0 0 0 0 0 0 0 0 0 0 0 0 0 0 0 0 0 0 0 0 0 0 0 0 0 0 0 211
0 0 0 0 0 0 0 0 0 0 0 0 0 0 0 0 0 0 0 0 0 0 0 0 0 0 0 0 0 0 0 0 0 0 0 0 0 0 0 0 0 0 0 7 83
0 0 0 0 0 0 0 0 0 0 0 0 0 0 0 0 0 0 0 0 0 0 0 0 0 0 0 0 0 0 0 0 0 0 0 0 0 0 0 0 0 0 57 479 532
0 0 0 0 0 0 0 0 0 0 0 0 0 0 0 0 0 0 0 0 0 0 0 0 0 0 0 0 0 0 0 0 0 0 0 0 0 0 0 0 0 142 437 444 543
0 0 0 0 0 0 0 0 0 0 0 0 0 0 0 0 0 0 0 0 0 0 0 0 0 0 0 0 0 0 0 0 0 0 0 0 0 0 0 0 0 0 141 224 392
0 0 0 0 0 0 0 0 0 0 0 0 0 0 0 0 0 0 0 0 0 0 0 0 0 0 0 0 0 0 0 0 0 0 0 0 0 0 0 0 0 0 17 82 104
0 0 0 0 0 0 0 0 0 0 0 0 0 0 0 0 0 0 0 0 0 0 0 0 0 0 0 0 0 0 0 0 0 0 0 0 0 0 0 0 0 0 0 0 0
0 0 0 0 0 0 0 0 0 0 0 0 0 0 0 0 0 0 0 0 0 0 0 0 0 0 0 0 0 0 0 0 0 0 0 0 0 0 0 0 0 0 0 0 0
0 0 0 0 0 0 0 0 0 0 0 0 0 0 0 0 0 0 0 0 0 0 0 0 0 0 0 0 0 0 0 0 0 0 0 0 0 0 0 0 0 0 0 0 0
0 0 0 0 0 0 0 0 0 0 0 0 0 0 0 0 0 0 0 0 0 0 0 0 0 0 0 0 0 0 0 0 0 0 0 0 0 0 0 0 0 0 0 0 0
0 0 0 0 0 0 0 0 0 0 0 0 0 0 0 0 0 0 0 0 0 0 0 0 0 0 0 0 0 0 0 0 0 0 0 0 0 0 0 0 0 0 0 0 0
0 0 0 0 0 0 0 0 0 0 0 0 0 0 0 0 0 0 0 0 0 0 0 0 0 0 0 0 0 0 0 0 0 0 0 0 0 0 0 0 0 0 0 0 0
0 0 0 0 0 0 0 0 0 0 0 0 0 0 0 0 0 0 0 0 0 0 0 0 0 0 0 0 0 0 0 0 0 0 0 0 0 0 0 0 0 0 0 0 0
CIN
-0 -0 -0 -0 -0 -0 -0 -0 -0 -0 -0 -0 -0 -0 -0 -0 -0 -0 -0 -0 -0 -0 -0 -0 -0 -0 -0 -0 -0 -0 -0 -0 -0 -0 -0 -0 -0 -0 -0 -0 -112 -126 -144 -229 -364
-0 -0 -0 -0 -0 -0 -0 -0 -0 -0 -0 -0 -0 -0 -0 -0 -0 -0 -0 -0 -0 -0 -0 -0 -0 -0 -0 -0 -0 -0 -0 -0 -0 -0 -0 -0 -0 -0 -0 -0 -0 -87 -245 -380 -401
-0 -0 -0 -0 -0 -0 -0 -0 -0 -0 -0 -0 -0 -0 -0 -0 -0 -0 -0 -0 -0 -0 -0 -0 -0 -0 -0 -0 -0 -0 -0 -0 -0 -0 -0 -0 -0 -0 -0 -0 -0 -0 -68 -318 -342
-0 -0 -0 -0 -0 -0 -0 -0 -0 -0 -0 -0 -0 -0 -0 -0 -0 -0 -0 -0 -0 -0 -0 -0 -0 -0 -0 -0 -0 -0 -0 -0 -0 -0 -0 -0 -0 -0 -0 -0 -0 -20 -143 -250 -278
-0 -0 -0 -0 -0 -0 -0 -0 -0 -0 -0 -0 -0 -0 -0 -0 -0 -0 -0 -0 -0 -0 -0 -0 -0 -0 -0 -0 -0 -0 -0 -0 -0 -0 -0 -0 -0 -0 -0 -0 -0 -0 -180 -187 -252
-0 -0 -0 -0 -0 -0 -0 -0 -0 -0 -0 -0 -0 -0 -0 -0 -0 -0 -0 -0 -0 -0 -0 -0 -0 -0 -0 -0 -0 -0 -0 -0 -0 -0 -0 -0 -0 -0 -0 -0 -0 -0 -0 -168 -215
-0 -0 -0 -0 -0 -0 -0 -0 -0 -0 -0 -0 -0 -0 -0 -0 -0 -0 -0 -0 -0 -0 -0 -0 -0 -0 -0 -0 -0 -0 -0 -0 -0 -0 -0 -0 -0 -0 -0 -0 -0 -0 -0 -190 -224
-0 -0 -0 -0 -0 -0 -0 -0 -0 -0 -0 -0 -0 -0 -0 -0 -0 -0 -0 -0 -0 -0 -0 -0 -0 -0 -0 -0 -0 -0 -0 -0 -0 -0 -0 -0 -0 -0 -0 -0 -0 -0 -0 -174 -200
-0 -0 -0 -0 -0 -0 -0 -0 -0 -0 -0 -0 -0 -0 -0 -0 -0 -0 -0 -0 -0 -0 -0 -0 -0 -0 -0 -0 -0 -0 -0 -0 -0 -0 -0 -0 -0 -0 -0 -0 -0 -0 -0 -129 -168
-0 -0 -0 -0 -0 -0 -0 -0 -0 -0 -0 -0 -0 -0 -0 -0 -0 -0 -0 -0 -0 -0 -0 -0 -0 -0 -0 -0 -0 -0 -0 -0 -0 -0 -0 -0 -0 -0 -0 -0 -0 -0 -0 -0 -151
-0 -0 -0 -0 -0 -0 -0 -0 -0 -0 -0 -0 -0 -0 -0 -0 -0 -0 -0 -0 -0 -0 -0 -0 -0 -0 -0 -0 -0 -0 -0 -0 -0 -0 -0 -0 -0 -0 -0 -0 -0 -0 -0 -0 -0
-0 -0 -0 -0 -0 -0 -0 -0 -0 -0 -0 -0 -0 -0 -0 -0 -0 -0 -0 -0 -0 -0 -0 -0 -0 -0 -0 -0 -0 -0 -0 -0 -0 -0 -0 -0 -0 -0 -0 -0 -0 -0 -0 -0 -75
-0 -0 -0 -0 -0 -0 -0 -0 -0 -0 -0 -0 -0 -0 -0 -0 -0 -0 -0 -0 -0 -0 -0 -0 -0 -0 -0 -0 -0 -0 -0 -0 -0 -0 -0 -0 -0 -0 -0 -0 -0 -0 -0 -262 -299
-0 -0 -0 -0 -0 -0 -0 -0 -0 -0 -0 -0 -0 -0 -0 -0 -0 -0 -0 -0 -0 -0 -0 -0 -0 -0 -0 -0 -0 -0 -0 -0 -0 -0 -0 -0 -0 -0 -0 -0 -0 -0 -0 -40 -314
-0 -0 -0 -0 -0 -0 -0 -0 -0 -0 -0 -0 -0 -0 -0 -0 -0 -0 -0 -0 -0 -0 -0 -0 -0 -0 -0 -0 -0 -0 -0 -0 -0 -0 -0 -0 -0 -0 -0 -0 -0 -0 -0 -0 -364
-0 -0 -0 -0 -0 -0 -0 -0 -0 -0 -0 -0 -0 -0 -0 -0 -0 -0 -0 -0 -0 -0 -0 -0 -0 -0 -0 -0 -0 -0 -0 -0 -0 -0 -0 -0 -0 -0 -0 -0 -0 -0 -0 -75 -375
-0 -0 -0 -0 -0 -0 -0 -0 -0 -0 -0 -0 -0 -0 -0 -0 -0 -0 -0 -0 -0 -0 -0 -0 -0 -0 -0 -0 -0 -0 -0 -0 -0 -0 -0 -0 -0 -0 -0 -0 -0 -0 -231 -309 -339
-0 -0 -0 -0 -0 -0 -0 -0 -0 -0 -0 -0 -0 -0 -0 -0 -0 -0 -0 -0 -0 -0 -0 -0 -0 -0 -0 -0 -0 -0 -0 -0 -0 -0 -0 -0 -0 -0 -0 -0 -0 -238 -229 -250 -326
-0 -0 -0 -0 -0 -0 -0 -0 -0 -0 -0 -0 -0 -0 -0 -0 -0 -0 -0 -0 -0 -0 -0 -0 -0 -0 -0 -0 -0 -0 -0 -0 -0 -0 -0 -0 -0 -0 -0 -0 -0 -17 -248 -270 -337
-0 -0 -0 -0 -0 -0 -0 -0 -0 -0 -0 -0 -0 -0 -0 -0 -0 -0 -0 -0 -0 -0 -0 -0 -0 -0 -0 -0 -0 -0 -0 -0 -0 -0 -0 -0 -0 -0 -0 -0 -0 -0 -336 -358 -361
-0 -0 -0 -0 -0 -0 -0 -0 -0 -0 -0 -0 -0 -0 -0 -0 -0 -0 -0 -0 -0 -0 -0 -0 -0 -0 -0 -0 -0 -0 -0 -0 -0 -0 -0 -0 -0 -0 -0 -0 -0 -0 -0 -0 -0
-0 -0 -0 -0 -0 -0 -0 -0 -0 -0 -0 -0 -0 -0 -0 -0 -0 -0 -0 -0 -0 -0 -0 -0 -0 -0 -0 -0 -0 -0 -0 -0 -0 -0 -0 -0 -0 -0 -0 -0 -0 -0 -0 -0 -0
-0 -0 -0 -0 -0 -0 -0 -0 -0 -0 -0 -0 -0 -0 -0 -0 -0 -0 -0 -0 -0 -0 -0 -0 -0 -0 -0 -0 -0 -0 -0 -0 -0 -0 -0 -0 -0 -0 -0 -0 -0 -0 -0 -0 -0
-0 -0 -0 -0 -0 -0 -0 -0 -0 -0 -0 -0 -0 -0 -0 -0 -0 -0 -0 -0 -0 -0 -0 -0 -0 -0 -0 -0 -0 -0 -0 -0 -0 -0 -0 -0 -0 -0 -0 -0 -0 -0 -0 -0 -0
-0 -0 -0 -0 -0 -0 -0 -0 -0 -0 -0 -0 -0 -0 -0 -0 -0 -0 -0 -0 -0 -0 -0 -0 -0 -0 -0 -0 -0 -0 -0 -0 -0 -0 -0 -0 -0 -0 -0 -0 -0 -0 -0 -0 -0
-0 -0 -0 -0 -0 -0 -0 -0 -0 -0 -0 -0 -0 -0 -0 -0 -0 -0 -0 -0 -0 -0 -0 -0 -0 -0 -0 -0 -0 -0 -0 -0 -0 -0 -0 -0 -0 -0 -0 -0 -0 -0 -0 -0 -0
-0 -0 -0 -0 -0 -0 -0 -0 -0 -0 -0 -0 -0 -0 -0 -0 -0 -0 -0 -0 -0 -0 -0 -0 -0 -0 -0 -0 -0 -0 -0 -0 -0 -0 -0 -0 -0 -0 -0 -0 -0 -0 -0 -0 -0
Wind_Speed
22 23 24 24 25 25 26 25 26 26 26 26 26 26 25 25 24 18 17 15 15 13 12 12 14 14 13 12 11 10 8 17 7 7 1 7 13 6 9 9 11 11 10 13 15
22 23 24 24 25 26 26 26 26 26 26 25 25 25 25 25 19 17 18 15 13 15 14 14 14 15 14 13 12 10 8 11 6 6 11 15 7 13 10 9 10 10 11 12 13
23 24 25 25 25 26 27 26 26 26 25 25 25 26 25 22 15 17 20 14 12 13 15 14 15 15 15 14 13 11 9 7 10 11 12 6 5 9 8 7 7 8 7 9 11
24 24 26 26 26 26 27 26 27 26 26 26 24 25 24 17 13 16 18 16 15 14 14 14 13 14 15 15 14 13 10 8 7 6 5 5 3 5 5 4 7 7 8 9 9
24 25 26 26 27 28 28 28 28 27 26 25 24 23 19 17 13 14 15 15 15 15 15 14 14 14 14 15 14 13 13 10 8 12 8 5 7 7 12 4 0 6 5 7 9
25 26 27 27 28 29 28 29 27 26 26 24 21 20 18 14 14 16 14 14 15 16 14 14 15 14 14 14 14 14 10 5 6 8 6 7 17 13 4 4 6 2 7 8 10
25 27 28 29 29 29 30 29 27 25 24 19 16 17 16 14 14 16 14 14 13 14 15 15 15 15 15 15 16 16 18 16 14 15 14 19 16 19 26 7 6 7 9 8 10
26 27 29 30 30 30 29 28 25 22 19 16 15 16 15 15 15 18 13 13 12 13 13 16 14 15 16 17 16 16 15 15 18 21 17 19 23 25 24 13 8 8 12 8 11
26 27 29 30 30 30 29 27 21 18 17 15 17 17 14 17 15 18 15 13 14 15 14 15 16 17 16 18 14 18 16 18 19 20 22 22 24 30 26 22 20 8 13 16 14
27 28 30 30 31 28 28 22 19 18 18 17 16 14 14 16 17 18 16 13 15 15 15 15 16 17 17 18 16 17 16 18 19 22 24 24 28 27 26 23 19 21 6 10 14
28 29 30 30 30 27 25 19 20 18 19 17 19 16 15 18 16 16 15 13 16 17 16 17 15 16 17 16 16 16 16 18 19 20 23 25 27 27 27 26 23 20 16 2 7
28 29 30 31 28 25 21 17 18 20 20 20 18 17 15 15 15 15 14 14 15 16 15 15 15 16 18 18 15 15 18 19 20 20 22 27 22 27 30 27 24 23 24 29 31
28 29 30 31 25 20 19 18 22 15 17 18 16 15 14 10 13 14 13 14 15 14 14 14 15 16 17 21 17 16 18 20 20 24 19 24 17 24 27 26 27 28 27 26 27
28 28 29 30 18 22 18 21 23 13 15 17 16 14 13 13 15 14 12 14 15 15 13 14 15 17 19 17 18 18 15 15 15 19 18 22 17 22 25 27 28 29 27 27 21
27 27 27 23 22 21 20 23 18 14 14 16 15 13 12 14 15 15 12 14 15 15 14 14 14 18 19 17 15 15 18 20 18 18 18 22 17 22 24 27 29 28 27 27 27
27 27 27 21 22 20 22 22 15 15 14 13 13 13 13 14 15 14 13 14 16 16 15 13 13 14 19 19 10 17 17 20 17 18 17 21 16 23 23 22 25 27 27 27 28
27 27 26 22 20 21 21 16 14 14 13 12 12 11 12 14 14 14 14 14 16 16 18 17 15 16 20 20 16 16 21 22 18 19 20 15 14 21 26 26 22 26 28 28 29
28 28 22 21 22 22 17 14 14 12 11 12 11 10 12 14 14 14 14 15 18 16 16 16 15 21 22 19 16 18 19 20 21 22 23 17 17 20 25 27 27 27 27 28 28
28 22 20 19 18 13 14 14 13 10 12 11 10 10 12 13 13 13 15 16 18 18 15 16 15 15 20 21 18 18 20 19 18 17 17 17 15 10 28 28 30 29 29 30 31
23 21 18 17 13 15 14 13 11 12 13 11 9 12 11 15 13 13 15 18 18 19 13 14 15 14 17 16 21 19 17 21 21 20 20 15 16 19 30 31 31 32 32 32 32
20 18 19 15 16 15 14 12 12 14 12 11 10 10 12 14 14 14 15 15 19 18 17 16 15 15 15 20 21 20 21 22 20 21 22 24 20 22 25 29 31 30 31 32 33
18 20 16 16 16 16 13 10 12 13 12 11 11 11 13 15 15 14 13 16 22 18 17 19 16 19 19 19 16 18 20 21 24 24 23 24 24 24 25 28 28 29 30 31 32
18 19 16 16 18 16 14 11 11 11 12 13 13 14 14 16 16 16 16 17 21 19 18 20 19 21 19 16 16 19 20 22 22 23 24 26 26 23 26 28 29 30 31 31 32
18 20 18 17 16 15 12 9 8 12 12 13 12 13 15 17 18 17 17 19 20 19 20 17 19 20 22 25 24 26 27 23 21 24 26 25 33 31 31 29 29 30 30 31 32
19 21 18 19 18 14 12 11 8 10 13 13 15 15 16 17 18 18 18 18 17 20 19 19 21 21 21 21 22 24 26 26 24 25 28 32 29 28 26 26 27 27 28 30 32
20 19 17 17 15 11 13 10 9 11 13 14 12 13 14 15 16 16 17 18 17 19 21 20 21 23 25 23 23 27 28 28 27 25 24 24 27 21 21 22 25 27 28 30 32
19 17 17 17 15 12 13 11 10 9 14 13 8 11 14 14 15 16 16 17 18 20 20 20 19 23 25 25 27 29 24 25 20 19 20 21 22 16 20 24 25 26 28 31 33
Wind_Direction
319 311 311 309 307 307 308 303 304 302 299 299 300 303 302 301 299 6 19 35 51 82 81 63 53 37 43 50 35 17 118 172 128 71 128 103 235 135 107 93 41 44 63 49 69
315 309 309 308 305 306 306 302 301 300 298 297 295 304 305 307 343 11 5 29 56 31 42 53 63 61 57 44 39 68 102 147 102 76 182 220 163 231 83 86 70 65 48 52 80
314 307 310 308 303 304 305 300 297 296 294 295 299 310 310 326 5 3 320 51 64 44 22 44 63 45 32 33 49 71 110 103 159 171 189 146 155 61 84 109 97 77 73 66 92
313 308 311 307 302 301 303 299 297 295 294 296 295 310 315 359 34 4 358 31 40 31 27 42 34 27 30 32 48 54 92 106 115 62 69 157 103 150 153 166 32 48 65 86 106
310 307 308 307 302 304 303 300 296 296 294 292 302 321 355 351 28 17 21 26 18 17 22 33 20 24 14 22 36 51 34 39 164 195 184 165 196 204 223 233 38 24 81 121 131
314 309 309 305 302 304 301 299 294 292 293 297 336 347 0 23 24 358 36 25 18 17 20 21 13 16 19 18 27 27 44 133 45 34 103 45 338 14 217 241 197 162 167 151 145
311 308 308 306 304 302 303 299 296 296 306 332 2 2 10 35 16 354 20 17 24 16 359 2 8 15 9 2 357 8 6 11 33 18 20 356 6 3 298 176 135 156 164 144 152
308 306 309 307 304 302 302 297 296 312 336 355 7 357 4 8 7 347 25 22 38 28 15 353 13 8 3 355 358 5 17 8 360 348 15 359 333 350 359 35 55 167 170 156 171
304 305 307 309 305 302 301 296 321 338 349 360 344 343 1 341 4 358 17 15 15 10 13 4 3 358 0 352 9 360 357 353 348 356 353 354 338 326 342 351 349 89 176 189 188
308 307 309 309 305 303 302 313 329 329 336 339 341 349 347 348 348 349 13 17 10 11 5 357 355 356 1 356 352 350 352 348 348 339 339 336 329 339 340 345 351 340 60 177 202
311 307 309 308 306 306 317 325 319 322 328 330 319 331 336 326 351 5 15 23 7 3 357 358 8 4 359 3 0 358 354 348 348 350 342 336 334 345 345 339 339 343 349 17 213
306 308 309 308 304 309 329 337 336 320 310 323 324 318 327 343 349 356 13 6 4 1 6 10 14 11 358 5 8 6 353 348 342 350 343 326 338 345 348 352 350 346 333 312 265
307 309 309 308 304 326 331 340 324 351 323 325 344 347 347 14 2 1 12 10 3 5 11 10 7 11 15 356 11 15 6 359 355 346 1 340 4 351 1 10 7 2 343 324 302
306 308 312 307 321 315 317 320 320 355 333 338 349 3 9 12 7 2 14 11 7 9 16 12 29 22 7 21 25 19 47 42 30 15 8 346 5 356 349 358 359 353 345 343 326
303 304 309 317 306 298 302 302 321 328 332 343 360 9 19 9 8 352 344 7 11 12 12 14 22 359 357 9 52 46 37 21 30 44 47 352 24 346 352 339 338 337 337 343 346
296 299 300 308 301 294 291 291 321 319 331 356 10 15 16 5 2 9 16 4 13 8 10 22 16 25 359 359 64 9 33 21 42 46 28 30 51 1 342 310 329 341 340 340 342
288 291 288 302 293 293 292 303 314 320 333 350 360 2 11 356 0 3 9 2 351 354 352 3 14 358 353 346 3 11 2 348 348 359 3 42 74 3 351 339 318 328 341 342 342
285 285 298 295 287 288 297 300 312 329 343 330 333 351 1 342 351 350 6 4 350 356 2 358 8 343 328 351 356 354 2 338 325 332 339 30 24 12 358 351 351 347 336 337 338
287 295 294 296 298 306 294 297 314 334 323 333 336 339 348 342 348 355 355 349 347 343 352 352 5 34 355 0 351 353 353 352 353 5 9 8 15 38 341 336 337 336 334 332 333
291 290 295 297 313 296 289 300 318 318 318 322 339 327 343 328 340 344 339 335 333 346 10 0 352 15 8 2 354 355 3 338 338 344 345 356 354 351 331 335 338 338 335 332 332
290 283 290 300 297 288 288 300 309 310 316 322 323 325 330 330 333 334 331 348 333 337 357 352 355 354 1 344 340 345 341 338 339 335 333 332 338 341 343 342 339 338 340 339 336
287 274 291 295 282 284 288 301 309 312 310 314 316 318 316 320 330 336 339 333 316 334 340 339 345 339 342 348 1 354 346 340 331 330 328 326 324 333 338 340 341 340 339 340 341
276 277 291 289 275 279 287 297 307 313 312 300 300 307 310 312 318 317 325 335 327 337 339 334 335 330 336 342 348 343 344 342 335 328 319 318 322 337 340 337 336 335 336 338 339
274 268 278 282 285 281 286 295 310 305 305 302 301 310 309 306 315 314 322 333 337 346 345 346 332 326 322 322 325 324 326 333 332 325 323 319 315 320 327 332 335 334 335 337 340
269 268 274 270 267 279 284 292 294 299 296 297 300 304 305 305 311 316 326 336 348 349 352 346 328 329 329 329 328 326 325 324 322 321 317 319 319 324 329 333 336 338 339 338 339
262 267 269 272 270 269 277 286 285 288 290 296 303 307 311 310 318 326 337 341 345 348 346 344 333 331 326 330 329 325 324 321 320 320 320 324 323 333 338 340 340 340 339 339 339
263 270 266 264 264 262 271 276 283 284 289 295 319 311 307 318 333 342 345 344 342 341 341 340 341 336 331 336 332 327 336 335 339 341 339 337 337 343 338 336 339 339 338 337 337